| time (UTC) | temp C | wind direction | speed KPH | gust KPH | rain 1hr cm | rain 24hr cm | rain mn cm | humidity % | barometer mb |
| 20260905195239 | 13 | 106 | 3.2 | 3.2 | 0.00 | 0.15 | 0.15 | 83 | 1022.1 |
| 20260905194225 | 13 | 108 | 3.2 | 3.2 | 0.00 | 0.15 | 0.15 | 82 | 1022.1 |
| 20260905194000 | 13 | 90 | 3.2 | 3.2 | 0.00 | 0.15 | 0.15 | 82 | 1022.1 |
| 20260905193507 | 13 | 111 | 1.6 | 3.2 | 0.00 | 0.15 | 0.15 | 80 | 1022.1 |
| 20260905192722 | 13 | 102 | 1.6 | 3.2 | 0.00 | 0.15 | 0.15 | 80 | 1021.9 |
| 20260905192224 | 13 | 100 | 1.6 | 3.2 | 0.00 | 0.15 | 0.15 | 81 | 1022.0 |
| 20260905191722 | 13 | 101 | 1.6 | 1.6 | 0.00 | 0.15 | 0.15 | 80 | 1022.0 |
| 20260905191225 | 13 | 99 | 0.0 | 3.2 | 0.00 | 0.15 | 0.15 | 80 | 1022.1 |
| 20260905191001 | 13 | 110 | 0.0 | 4.8 | 0.00 | 0.15 | 0.15 | 81 | 1021.9 |
| 20260905190225 | 13 | 105 | 3.2 | 4.8 | 0.00 | 0.15 | 0.15 | 81 | 1021.8 |
| 20260905185722 | 13 | 111 | 3.2 | 4.8 | 0.00 | 0.15 | 0.15 | 81 | 1021.7 |
| 20260905185224 | 13 | 99 | 3.2 | 4.8 | 0.00 | 0.15 | 0.15 | 81 | 1021.6 |
| 20260905184721 | 13 | 105 | 3.2 | 4.8 | 0.00 | 0.15 | 0.15 | 80 | 1021.7 |
| 20260905184226 | 13 | 107 | 3.2 | 4.8 | 0.00 | 0.15 | 0.15 | 80 | 1021.5 |
| 20260905183722 | 13 | 110 | 3.2 | 4.8 | 0.00 | 0.15 | 0.15 | 80 | 1021.6 |
| 20260905183254 | 13 | 87 | 3.2 | 4.8 | 0.00 | 0.15 | 0.15 | 80 | 1021.6 |
| 20260905182221 | 13 | 98 | 3.2 | 4.8 | 0.00 | 0.15 | 0.15 | 80 | 1021.3 |
| 20260905181722 | 13 | 90 | 3.2 | 4.8 | 0.00 | 0.15 | 0.15 | 80 | 1021.2 |
| 20260905181222 | 14 | 100 | 3.2 | 4.8 | 0.00 | 0.15 | 0.15 | 80 | 1021.2 |
| 20260905180722 | 14 | 104 | 1.6 | 3.2 | 0.00 | 0.15 | 0.15 | 80 | 1021.2 |
| 20260905180222 | 14 | 89 | 3.2 | 4.8 | 0.00 | 0.15 | 0.15 | 79 | 1021.0 |
| 20260905175722 | 14 | 103 | 3.2 | 4.8 | 0.00 | 0.15 | 0.15 | 80 | 1020.8 |
| 20260905175221 | 14 | 146 | 1.6 | 3.2 | 0.00 | 0.15 | 0.15 | 80 | 1020.9 |
| 20260905174958 | 15 | 146 | 1.6 | 3.2 | 0.00 | 0.15 | 0.15 | 79 | 1020.7 |
| 20260905174222 | 15 | 146 | 1.6 | 3.2 | 0.00 | 0.15 | 0.15 | 78 | 1020.8 |
| 20260905173722 | 15 | 146 | 1.6 | 3.2 | 0.00 | 0.15 | 0.15 | 78 | 1020.6 |
| 20260905173218 | 15 | 146 | 1.6 | 3.2 | 0.00 | 0.15 | 0.15 | 78 | 1020.6 |
| 20260905172714 | 15 | 146 | 1.6 | 3.2 | 0.00 | 0.15 | 0.15 | 78 | 1020.6 |
| 20260905172217 | 16 | 146 | 1.6 | 3.2 | 0.00 | 0.15 | 0.15 | 77 | 1020.5 |
| 20260905171714 | 16 | 146 | 1.6 | 3.2 | 0.00 | 0.15 | 0.15 | 76 | 1020.6 |
| 20260905171216 | 16 | 146 | 1.6 | 3.2 | 0.00 | 0.15 | 0.15 | 77 | 1020.4 |
| 20260905170715 | 16 | 146 | 0.0 | 3.2 | 0.00 | 0.15 | 0.15 | 75 | 1020.3 |
| 20260905170457 | 17 | 146 | 0.0 | 3.2 | 0.00 | 0.15 | 0.15 | 73 | 1020.3 |
| 20260905165714 | 17 | 146 | 0.0 | 0.0 | 0.00 | 0.15 | 0.15 | 74 | 1020.3 |
| 20260905165218 | 17 | 146 | 0.0 | 3.2 | 0.00 | 0.15 | 0.15 | 70 | 1020.2 |
| 20260905164712 | 18 | 146 | 0.0 | 3.2 | 0.00 | 0.15 | 0.15 | 70 | 1020.2 |
| 20260905164211 | 18 | 265 | 0.0 | 4.8 | 0.00 | 0.15 | 0.15 | 68 | 1020.1 |
| 20260905163946 | 19 | 265 | 1.6 | 4.8 | 0.00 | 0.15 | 0.15 | 63 | 1020.1 |
| 20260905163210 | 19 | 289 | 0.0 | 4.8 | 0.00 | 0.15 | 0.15 | 60 | 1020.1 |
| 20260905162947 | 20 | 215 | 3.2 | 6.4 | 0.00 | 0.15 | 0.15 | 60 | 1020.0 |
| 20260905162211 | 20 | 286 | 0.0 | 6.4 | 0.00 | 0.15 | 0.15 | 58 | 1020.0 |
| 20260905161710 | 20 | 276 | 3.2 | 9.7 | 0.00 | 0.15 | 0.15 | 59 | 1019.7 |
| 20260905161211 | 21 | 263 | 3.2 | 9.7 | 0.00 | 0.15 | 0.15 | 57 | 1019.6 |
| 20260905160709 | 21 | 282 | 6.4 | 9.7 | 0.00 | 0.15 | 0.15 | 55 | 1019.6 |
| 20260905160211 | 21 | 266 | 6.4 | 17.7 | 0.00 | 0.15 | 0.15 | 55 | 1019.6 |
| 20260905155708 | 21 | 292 | 4.8 | 17.7 | 0.00 | 0.15 | 0.15 | 54 | 1019.4 |
| 20260905155210 | 21 | 258 | 6.4 | 12.9 | 0.00 | 0.15 | 0.15 | 56 | 1019.4 |
| 20260905154708 | 21 | 83 | 3.2 | 22.5 | 0.00 | 0.15 | 0.15 | 54 | 1019.4 |
| 20260905154211 | 22 | 302 | 11.3 | 22.5 | 0.00 | 0.15 | 0.15 | 52 | 1019.3 |
| 20260905153707 | 22 | 275 | 4.8 | 14.5 | 0.00 | 0.15 | 0.15 | 55 | 1019.5 |
| 20260905153211 | 22 | 259 | 3.2 | 14.5 | 0.00 | 0.15 | 0.15 | 54 | 1019.2 |
| 20260905152707 | 22 | 287 | 4.8 | 14.5 | 0.00 | 0.15 | 0.15 | 55 | 1019.3 |
| 20260905152210 | 22 | 347 | 3.2 | 12.9 | 0.00 | 0.15 | 0.15 | 54 | 1019.2 |
| 20260905151708 | 22 | 227 | 3.2 | 14.5 | 0.00 | 0.15 | 0.15 | 53 | 1019.3 |
| 20260905151204 | 22 | 310 | 1.6 | 14.5 | 0.00 | 0.15 | 0.15 | 51 | 1019.2 |
| 20260905150704 | 22 | 251 | 4.8 | 16.1 | 0.00 | 0.15 | 0.15 | 52 | 1019.4 |
| 20260905150205 | 22 | 257 | 9.7 | 16.1 | 0.00 | 0.15 | 0.15 | 53 | 1019.3 |
| 20260905145704 | 22 | 311 | 9.7 | 24.1 | 0.00 | 0.15 | 0.15 | 53 | 1019.4 |
| 20260905145205 | 22 | 323 | 9.7 | 24.1 | 0.00 | 0.15 | 0.15 | 54 | 1019.3 |
| 20260905144704 | 22 | 218 | 6.4 | 14.5 | 0.00 | 0.15 | 0.15 | 52 | 1019.1 |
| 20260905144206 | 22 | 55 | 3.2 | 17.7 | 0.00 | 0.15 | 0.15 | 52 | 1019.2 |
| 20260905143704 | 22 | 269 | 12.9 | 17.7 | 0.00 | 0.15 | 0.15 | 54 | 1019.1 |
| 20260905143207 | 23 | 291 | 4.8 | 17.7 | 0.00 | 0.15 | 0.15 | 51 | 1019.0 |
| 20260905142704 | 23 | 258 | 1.6 | 14.5 | 0.00 | 0.15 | 0.15 | 51 | 1019.0 |
| 20260905142207 | 23 | 236 | 6.4 | 17.7 | 0.00 | 0.15 | 0.15 | 50 | 1019.1 |
| 20260905141656 | 23 | 350 | 4.8 | 17.7 | 0.00 | 0.15 | 0.15 | 50 | 1019.2 |
| 20260905141159 | 23 | 337 | 3.2 | 17.7 | 0.00 | 0.15 | 0.15 | 54 | 1019.4 |
| 20260905140656 | 22 | 278 | 11.3 | 17.7 | 0.00 | 0.15 | 0.15 | 57 | 1019.0 |
| 20260905140159 | 23 | 280 | 3.2 | 20.9 | 0.00 | 0.15 | 0.15 | 54 | 1019.1 |
| 20260905135657 | 23 | 268 | 4.8 | 20.9 | 0.00 | 0.15 | 0.15 | 52 | 1019.2 |
| 20260905135159 | 24 | 280 | 3.2 | 12.9 | 0.00 | 0.15 | 0.15 | 50 | 1019.0 |
| 20260905134935 | 23 | 80 | 3.2 | 12.9 | 0.00 | 0.15 | 0.15 | 52 | 1019.2 |
| 20260905134159 | 23 | 260 | 3.2 | 17.7 | 0.00 | 0.15 | 0.15 | 52 | 1019.2 |
| 20260905133933 | 23 | 272 | 8.0 | 17.7 | 0.00 | 0.15 | 0.15 | 51 | 1019.2 |
| 20260905133159 | 23 | 172 | 1.6 | 12.9 | 0.00 | 0.15 | 0.15 | 54 | 1019.2 |
| 20260905132656 | 23 | 111 | 3.2 | 24.1 | 0.00 | 0.15 | 0.15 | 52 | 1019.0 |
| 20260905132158 | 22 | 300 | 3.2 | 24.1 | 0.00 | 0.15 | 0.15 | 54 | 1019.2 |
| 20260905131656 | 22 | 272 | 4.8 | 25.7 | 0.00 | 0.15 | 0.15 | 53 | 1019.2 |
| 20260905131200 | 22 | 298 | 6.4 | 25.7 | 0.00 | 0.15 | 0.15 | 54 | 1019.2 |
| 20260905130656 | 22 | 252 | 12.9 | 16.1 | 0.00 | 0.15 | 0.15 | 55 | 1019.0 |
| 20260905130444 | 22 | 280 | 4.8 | 17.7 | 0.00 | 0.15 | 0.15 | 56 | 1019.1 |
| 20260905125656 | 22 | 294 | 9.7 | 22.5 | 0.00 | 0.15 | 0.15 | 56 | 1019.3 |
| 20260905125159 | 22 | 29 | 3.2 | 22.5 | 0.00 | 0.15 | 0.15 | 56 | 1019.3 |
| 20260905124706 | 22 | 328 | 8.0 | 14.5 | 0.00 | 0.15 | 0.15 | 55 | 1019.3 |
| 20260905123656 | 22 | 244 | 11.3 | 14.5 | 0.00 | 0.15 | 0.15 | 59 | 1019.3 |
| 20260905123156 | 22 | 212 | 8.0 | 16.1 | 0.00 | 0.15 | 0.15 | 58 | 1019.4 |
| 20260905122937 | 21 | 276 | 3.2 | 20.9 | 0.00 | 0.15 | 0.15 | 59 | 1019.4 |
| 20260905122156 | 21 | 346 | 8.0 | 20.9 | 0.00 | 0.15 | 0.15 | 59 | 1019.6 |
| 20260905121943 | 21 | 268 | 6.4 | 20.9 | 0.00 | 0.15 | 0.15 | 59 | 1019.6 |
| 20260905121434 | 21 | 285 | 4.8 | 30.6 | 0.00 | 0.15 | 0.15 | 62 | 1019.6 |
| 20260905120654 | 21 | 276 | 8.0 | 30.6 | 0.00 | 0.15 | 0.15 | 61 | 1019.6 |
| 20260905120154 | 21 | 36 | 8.0 | 17.7 | 0.00 | 0.15 | 0.15 | 61 | 1019.7 |
| 20260905115654 | 21 | 284 | 9.7 | 20.9 | 0.00 | 0.15 | 0.15 | 63 | 1019.8 |
| 20260905115154 | 21 | 89 | 9.7 | 20.9 | 0.00 | 0.15 | 0.15 | 64 | 1019.8 |
| 20260905114943 | 20 | 315 | 4.8 | 16.1 | 0.00 | 0.15 | 0.15 | 64 | 1020.0 |
| 20260905114430 | 20 | 10 | 4.8 | 16.1 | 0.00 | 0.15 | 0.15 | 65 | 1019.7 |
| 20260905113654 | 20 | 324 | 8.0 | 14.5 | 0.00 | 0.15 | 0.15 | 63 | 1020.1 |
| 20260905113434 | 19 | 298 | 12.9 | 17.7 | 0.00 | 0.15 | 0.15 | 65 | 1020.2 |
| 20260905112653 | 19 | 238 | 4.8 | 17.7 | 0.00 | 0.15 | 0.15 | 66 | 1019.8 |
| 20260905111645 | 20 | 275 | 6.4 | 20.9 | 0.00 | 0.15 | 0.15 | 65 | 1020.0 |
| 20260905111144 | 20 | 290 | 4.8 | 20.9 | 0.00 | 0.15 | 0.15 | 66 | 1019.8 |
| 20260905110644 | 20 | 249 | 4.8 | 11.3 | 0.00 | 0.15 | 0.15 | 66 | 1020.1 |
| 20260905110144 | 19 | 324 | 6.4 | 11.3 | 0.00 | 0.15 | 0.15 | 67 | 1019.8 |
| 20260905105644 | 18 | 29 | 1.6 | 17.7 | 0.00 | 0.15 | 0.15 | 69 | 1019.8 |
| 20260905105145 | 19 | 266 | 6.4 | 17.7 | 0.00 | 0.15 | 0.15 | 68 | 1020.1 |
| 20260905104644 | 20 | 277 | 4.8 | 16.1 | 0.00 | 0.15 | 0.15 | 67 | 1020.1 |
| 20260905104144 | 19 | 264 | 1.6 | 9.7 | 0.00 | 0.15 | 0.15 | 67 | 1020.1 |
| 20260905103644 | 19 | 300 | 4.8 | 16.1 | 0.00 | 0.15 | 0.15 | 70 | 1020.1 |
| 20260905103144 | 18 | 275 | 3.2 | 16.1 | 0.00 | 0.15 | 0.15 | 68 | 1020.4 |
| 20260905102644 | 18 | 288 | 6.4 | 17.7 | 0.00 | 0.15 | 0.15 | 67 | 1020.3 |
| 20260905102145 | 17 | 271 | 1.6 | 17.7 | 0.00 | 0.15 | 0.15 | 71 | 1020.4 |
| 20260905101644 | 17 | 287 | 4.8 | 17.7 | 0.00 | 0.15 | 0.15 | 70 | 1020.4 |
| 20260905101151 | 17 | 287 | 4.8 | 17.7 | 0.00 | 0.15 | 0.15 | 69 | 1020.5 |
| 20260905100644 | 17 | 345 | 3.2 | 12.9 | 0.00 | 0.15 | 0.15 | 70 | 1020.4 |
| 20260905100151 | 18 | 286 | 8.0 | 12.9 | 0.00 | 0.15 | 0.15 | 67 | 1020.4 |
| 20260905095644 | 18 | 292 | 4.8 | 17.7 | 0.00 | 0.15 | 0.15 | 68 | 1020.4 |
| 20260905095220 | 18 | 247 | 3.2 | 17.7 | 0.00 | 0.15 | 0.15 | 69 | 1020.3 |
| 20260905094151 | 17 | 64 | 6.4 | 14.5 | 0.00 | 0.15 | 0.15 | 71 | 1020.3 |
| 20260905093645 | 17 | 46 | 0.0 | 16.1 | 0.00 | 0.15 | 0.15 | 73 | 1020.4 |
| 20260905093435 | 17 | 37 | 3.2 | 16.1 | 0.00 | 0.15 | 0.15 | 71 | 1020.6 |
| 20260905092645 | 17 | 298 | 4.8 | 9.7 | 0.00 | 0.15 | 0.15 | 74 | 1020.3 |
| 20260905092144 | 17 | 283 | 0.0 | 4.8 | 0.00 | 0.15 | 0.15 | 74 | 1020.4 |
| 20260905091928 | 17 | 176 | 0.0 | 4.8 | 0.00 | 0.15 | 0.15 | 76 | 1020.6 |
| 20260905091144 | 16 | 176 | 1.6 | 4.8 | 0.00 | 0.15 | 0.15 | 77 | 1020.5 |
| 20260905090931 | 16 | 18 | 0.0 | 4.8 | 0.00 | 0.15 | 0.15 | 78 | 1020.8 |
| 20260905090146 | 16 | 18 | 3.2 | 9.7 | 0.00 | 0.15 | 0.15 | 79 | 1020.7 |
| 20260905085648 | 16 | 281 | 4.8 | 11.3 | 0.00 | 0.15 | 0.15 | 79 | 1020.6 |
| 20260905085147 | 16 | 274 | 3.2 | 4.8 | 0.00 | 0.15 | 0.15 | 79 | 1020.4 |
| 20260905084647 | 16 | 166 | 1.6 | 3.2 | 0.00 | 0.15 | 0.15 | 85 | 1020.4 |
| 20260905084146 | 16 | 166 | 0.0 | 3.2 | 0.00 | 0.15 | 0.15 | 88 | 1020.3 |
| 20260905083647 | 16 | 243 | 0.0 | 4.8 | 0.00 | 0.15 | 0.15 | 86 | 1020.2 |
| 20260905083421 | 16 | 315 | 3.2 | 4.8 | 0.00 | 0.15 | 0.15 | 83 | 1020.3 |
| 20260905082652 | 16 | 286 | 1.6 | 11.3 | 0.00 | 0.15 | 0.15 | 84 | 1020.2 |
| 20260905081646 | 15 | 318 | 0.0 | 4.8 | 0.00 | 0.15 | 0.15 | 89 | 1020.0 |
| 20260905081148 | 15 | 42 | 1.6 | 4.8 | 0.00 | 0.15 | 0.15 | 90 | 1020.1 |
| 20260905080948 | 15 | 18 | 3.2 | 4.8 | 0.00 | 0.15 | 0.15 | 93 | 1020.0 |
| 20260905080143 | 14 | 220 | 0.0 | 4.8 | 0.00 | 0.15 | 0.15 | 95 | 1019.8 |
| 20260905075636 | 14 | 275 | 1.6 | 3.2 | 0.00 | 0.15 | 0.15 | 95 | 1019.8 |
| 20260905075135 | 14 | 132 | 0.0 | 3.2 | 0.00 | 0.15 | 0.15 | 95 | 1019.5 |
| 20260905074635 | 15 | 132 | 3.2 | 4.8 | 0.00 | 0.15 | 0.15 | 95 | 1019.1 |
| 20260905074124 | 14 | 132 | 0.0 | 4.8 | 0.00 | 0.15 | 0.15 | 95 | 1019.6 |
| 20260905073623 | 14 | 106 | 3.2 | 3.2 | 0.03 | 0.15 | 0.15 | 95 | 1020.0 |
| 20260905073120 | 14 | 106 | 0.0 | 3.2 | 0.03 | 0.15 | 0.15 | 95 | 1019.5 |
| 20260905072901 | 14 | 106 | 0.0 | 3.2 | 0.03 | 0.15 | 0.15 | 95 | 1019.5 |
| 20260905072114 | 14 | 106 | 1.6 | 3.2 | 0.03 | 0.15 | 0.15 | 95 | 1019.7 |
| 20260905071611 | 14 | 106 | 1.6 | 3.2 | 0.03 | 0.15 | 0.15 | 95 | 1019.7 |
| 20260905071108 | 14 | 106 | 0.0 | 0.0 | 0.03 | 0.15 | 0.15 | 95 | 1019.6 |
| 20260905070604 | 14 | 106 | 0.0 | 0.0 | 0.03 | 0.15 | 0.15 | 95 | 1019.7 |
| 20260905070119 | 14 | 106 | 0.0 | 0.0 | 0.03 | 0.15 | 0.15 | 95 | 1019.3 |
| 20260905065604 | 14 | 106 | 0.0 | 1.6 | 0.03 | 0.15 | 0.15 | 95 | 1019.0 |
| 20260905065100 | 14 | 106 | 0.0 | 3.2 | 0.03 | 0.15 | 0.15 | 95 | 1018.5 |
| 20260905064556 | 14 | 106 | 1.6 | 3.2 | 0.03 | 0.15 | 0.15 | 95 | 1018.8 |
| 20260905064059 | 14 | 106 | 1.6 | 3.2 | 0.05 | 0.15 | 0.15 | 95 | 1018.7 |
| 20260905063556 | 14 | 106 | 1.6 | 3.2 | 0.03 | 0.13 | 0.13 | 95 | 1018.6 |
| 20260905063056 | 14 | 106 | 0.0 | 0.0 | 0.03 | 0.13 | 0.13 | 95 | 1019.1 |
| 20260905062557 | 14 | 106 | 0.0 | 1.6 | 0.05 | 0.13 | 0.13 | 95 | 1019.0 |
| 20260905062057 | 14 | 106 | 0.0 | 3.2 | 0.05 | 0.13 | 0.13 | 95 | 1019.0 |
| 20260905061556 | 14 | 106 | 1.6 | 3.2 | 0.08 | 0.13 | 0.13 | 94 | 1018.5 |
| 20260905061103 | 14 | 106 | 0.0 | 3.2 | 0.08 | 0.13 | 0.13 | 94 | 1018.6 |
| 20260905060559 | 14 | 106 | 3.2 | 3.2 | 0.08 | 0.13 | 0.13 | 94 | 1018.4 |
| 20260905060045 | 14 | 106 | 3.2 | 3.2 | 0.08 | 0.13 | 0.13 | 94 | 1018.8 |
| 20260905055544 | 14 | 106 | 3.2 | 3.2 | 0.08 | 0.13 | 0.13 | 94 | 1019.0 |
| 20260905055044 | 14 | 106 | 0.0 | 3.2 | 0.10 | 0.13 | 0.13 | 94 | 1018.9 |
| 20260905054544 | 14 | 106 | 0.0 | 4.8 | 0.10 | 0.13 | 0.13 | 93 | 1018.6 |
| 20260905054418 | 14 | 106 | 1.6 | 4.8 | 0.08 | 0.10 | 0.10 | 93 | 1018.9 |
| 20260905052545 | 15 | 106 | 1.6 | 3.2 | 0.05 | 0.08 | 0.08 | 93 | 1018.8 |
| 20260905052327 | 15 | 106 | 0.0 | 3.2 | 0.05 | 0.08 | 0.08 | 93 | 1018.5 |
| 20260905051544 | 15 | 106 | 0.0 | 0.0 | 0.05 | 0.05 | 0.05 | 93 | 1018.6 |
| 20260905051044 | 15 | 106 | 0.0 | 1.6 | 0.05 | 0.05 | 0.05 | 93 | 1018.5 |
| 20260905050544 | 15 | 106 | 0.0 | 4.8 | 0.05 | 0.05 | 0.05 | 93 | 1018.3 |
| 20260905050044 | 15 | 105 | 1.6 | 4.8 | 0.05 | 0.05 | 0.05 | 92 | 1017.7 |
| 20260905045832 | 15 | 143 | 1.6 | 3.2 | 0.05 | 0.05 | 0.05 | 92 | 1018.0 |
| 20260905045044 | 15 | 251 | 0.0 | 6.4 | 0.03 | 0.03 | 0.03 | 91 | 1018.0 |
| 20260905044546 | 15 | 251 | 0.0 | 6.4 | 0.03 | 0.03 | 0.03 | 90 | 1017.7 |
| 20260905044048 | 15 | 301 | 4.8 | 6.4 | 0.03 | 0.03 | 0.03 | 92 | 1018.2 |
| 20260905043558 | 15 | 110 | 0.0 | 3.2 | 0.03 | 0.03 | 0.03 | 92 | 1017.4 |
| 20260905042547 | 15 | 110 | 0.0 | 3.2 | 0.03 | 0.03 | 0.03 | 91 | 1017.2 |
| 20260905042325 | 15 | 110 | 0.0 | 0.0 | 0.03 | 0.03 | 0.03 | 90 | 1017.3 |
| 20260905041548 | 15 | 110 | 0.0 | 0.0 | 0.00 | 0.00 | 0.00 | 90 | 1017.1 |
| 20260905041050 | 16 | 110 | 0.0 | 0.0 | 0.00 | 0.00 | 0.00 | 89 | 1017.4 |
| 20260905040037 | 16 | 110 | 0.0 | 3.2 | 0.00 | 0.00 | 0.00 | 84 | 1016.7 |
| 20260905035535 | 16 | 110 | 0.0 | 3.2 | 0.00 | 0.00 | 0.00 | 85 | 1016.6 |
| 20260905035034 | 16 | 110 | 1.6 | 3.2 | 0.00 | 0.00 | 0.00 | 85 | 1016.3 |
| 20260905034535 | 16 | 110 | 3.2 | 3.2 | 0.00 | 0.00 | 0.00 | 85 | 1016.3 |
| 20260905034034 | 15 | 110 | 3.2 | 3.2 | 0.00 | 0.00 | 0.00 | 86 | 1016.2 |
| 20260905033533 | 16 | 110 | 0.0 | 3.2 | 0.00 | 0.00 | 0.00 | 85 | 1016.4 |
| 20260905033033 | 15 | 110 | 0.0 | 4.8 | 0.00 | 0.00 | 0.00 | 87 | 1016.3 |
| 20260905032532 | 15 | 110 | 3.2 | 4.8 | 0.00 | 0.00 | 0.00 | 87 | 1016.0 |
| 20260905032032 | 15 | 110 | 0.0 | 0.0 | 0.00 | 0.00 | 0.00 | 87 | 1016.1 |
| 20260905031537 | 15 | 110 | 0.0 | 0.0 | 0.00 | 0.00 | 0.00 | 88 | 1016.1 |
| 20260905030523 | 16 | 110 | 0.0 | 3.2 | 0.00 | 0.00 | 0.00 | 87 | 1015.9 |
| 20260905030015 | 16 | 110 | 1.6 | 3.2 | 0.00 | 0.00 | 0.00 | 86 | 1015.6 |
| 20260905025514 | 16 | 110 | 0.0 | 1.6 | 0.00 | 0.00 | 0.00 | 85 | 1015.9 |
| 20260905025251 | 16 | 110 | 1.6 | 3.2 | 0.00 | 0.00 | 0.00 | 85 | 1015.7 |
| 20260905024514 | 16 | 110 | 0.0 | 3.2 | 0.00 | 0.00 | 0.00 | 84 | 1015.5 |
| 20260905024255 | 16 | 110 | 0.0 | 3.2 | 0.00 | 0.00 | 0.00 | 85 | 1015.7 |
| 20260905023513 | 16 | 110 | 1.6 | 3.2 | 0.00 | 0.00 | 0.00 | 84 | 1015.5 |
| 20260905023017 | 17 | 110 | 0.0 | 1.6 | 0.00 | 0.00 | 0.00 | 84 | 1015.8 |
| 20260905022518 | 17 | 110 | 0.0 | 3.2 | 0.00 | 0.00 | 0.00 | 82 | 1015.9 |
| 20260905022021 | 17 | 110 | 0.0 | 3.2 | 0.00 | 0.00 | 0.00 | 82 | 1015.8 |
| 20260905021513 | 17 | 110 | 0.0 | 3.2 | 0.00 | 0.00 | 0.00 | 82 | 1015.8 |
| 20260905021021 | 18 | 110 | 0.0 | 3.2 | 0.00 | 0.00 | 0.00 | 82 | 1015.7 |
| 20260905020747 | 17 | 110 | 1.6 | 3.2 | 0.00 | 0.00 | 0.00 | 78 | 1015.8 |
| 20260905020014 | 18 | 110 | 0.0 | 1.6 | 0.00 | 0.00 | 0.00 | 79 | 1015.8 |
| 20260905015513 | 18 | 110 | 0.0 | 3.2 | 0.00 | 0.00 | 0.00 | 81 | 1015.8 |
| 20260905015014 | 18 | 110 | 1.6 | 3.2 | 0.00 | 0.00 | 0.00 | 80 | 1015.5 |
| 20260905014513 | 18 | 72 | 0.0 | 1.6 | 0.00 | 0.00 | 0.00 | 80 | 1015.3 |
| 20260905014013 | 18 | 72 | 1.6 | 3.2 | 0.00 | 0.00 | 0.00 | 80 | 1015.1 |
| 20260905013508 | 18 | 72 | 0.0 | 3.2 | 0.00 | 0.00 | 0.00 | 81 | 1015.1 |
| 20260905013008 | 18 | 93 | 0.0 | 3.2 | 0.00 | 0.00 | 0.00 | 83 | 1014.9 |
| 20260905012508 | 18 | 93 | 0.0 | 3.2 | 0.00 | 0.00 | 0.00 | 81 | 1014.9 |
| 20260905012009 | 18 | 314 | 3.2 | 3.2 | 0.00 | 0.00 | 0.00 | 81 | 1014.7 |
| 20260905011509 | 18 | 126 | 0.0 | 3.2 | 0.00 | 0.00 | 0.00 | 80 | 1014.7 |
| 20260905011249 | 18 | 263 | 0.0 | 3.2 | 0.00 | 0.00 | 0.00 | 80 | 1014.7 |
| 20260905010507 | 18 | 300 | 1.6 | 3.2 | 0.00 | 0.00 | 0.00 | 80 | 1014.6 |
| 20260905010000 | 19 | 354 | 0.0 | 3.2 | 0.00 | 0.00 | 0.00 | 80 | 1014.5 |
| 20260905005457 | 18 | 354 | 1.6 | 3.2 | 0.00 | 0.00 | 0.00 | 79 | 1014.4 |
| 20260905005251 | 19 | 354 | 0.0 | 1.6 | 0.00 | 0.00 | 0.00 | 79 | 1014.2 |
| 20260905004734 | 19 | 354 | 0.0 | 3.2 | 0.00 | 0.00 | 0.00 | 79 | 1014.3 |
| 20260905004000 | 19 | 354 | 1.6 | 3.2 | 0.00 | 0.00 | 0.00 | 77 | 1014.0 |
| 20260905003455 | 19 | 354 | 0.0 | 0.0 | 0.00 | 0.00 | 0.00 | 78 | 1014.1 |
| 20260905002959 | 20 | 354 | 0.0 | 1.6 | 0.00 | 0.00 | 0.00 | 76 | 1013.7 |
| 20260905002457 | 20 | 354 | 0.0 | 1.6 | 0.00 | 0.00 | 0.00 | 76 | 1013.7 |
| 20260905002001 | 19 | 354 | 0.0 | 1.6 | 0.00 | 0.00 | 0.00 | 76 | 1013.6 |
| 20260905001459 | 20 | 236 | 0.0 | 1.6 | 0.00 | 0.00 | 0.00 | 77 | 1013.7 |
| 20260905001002 | 20 | 296 | 0.0 | 3.2 | 0.00 | 0.00 | 0.00 | 76 | 1013.6 |
| 20260905000458 | 20 | 102 | 1.6 | 6.4 | 0.00 | 0.00 | 0.00 | 75 | 1013.6 |
| 20260905000002 | 20 | 246 | 1.6 | 6.4 | 0.00 | 0.00 | 0.00 | 77 | 1013.3 |
| 20260904235458 | 19 | 288 | 3.2 | 11.3 | 0.00 | 0.00 | 0.00 | 77 | 1013.4 |
| 20260904235002 | 19 | 260 | 6.4 | 11.3 | 0.00 | 0.00 | 0.00 | 82 | 1013.4 |
| 20260904234459 | 19 | 85 | 1.6 | 3.2 | 0.00 | 0.00 | 0.00 | 80 | 1013.1 |
| 20260904234001 | 18 | 119 | 0.0 | 4.8 | 0.00 | 0.00 | 0.00 | 82 | 1013.1 |
| 20260904233456 | 18 | 74 | 3.2 | 4.8 | 0.00 | 0.00 | 0.00 | 80 | 1013.1 |
| 20260904232956 | 18 | 80 | 1.6 | 4.8 | 0.00 | 0.00 | 0.00 | 81 | 1013.1 |
| 20260904232455 | 18 | 80 | 4.8 | 4.8 | 0.00 | 0.00 | 0.00 | 80 | 1013.0 |
| 20260904231956 | 18 | 133 | 0.0 | 4.8 | 0.00 | 0.00 | 0.00 | 81 | 1013.0 |
| 20260904231733 | 18 | 106 | 3.2 | 6.4 | 0.00 | 0.00 | 0.00 | 81 | 1013.1 |
| 20260904230956 | 18 | 80 | 1.6 | 6.4 | 0.00 | 0.00 | 0.00 | 81 | 1013.0 |
| 20260904230509 | 18 | 119 | 3.2 | 6.4 | 0.00 | 0.00 | 0.00 | 81 | 1013.0 |
| 20260904225956 | 18 | 122 | 1.6 | 6.4 | 0.00 | 0.00 | 0.00 | 81 | 1012.9 |
| 20260904225456 | 18 | 118 | 3.2 | 4.8 | 0.00 | 0.00 | 0.00 | 81 | 1013.0 |
| 20260904224956 | 18 | 75 | 3.2 | 6.4 | 0.00 | 0.00 | 0.00 | 81 | 1012.9 |
| 20260904224456 | 18 | 84 | 4.8 | 6.4 | 0.00 | 0.00 | 0.00 | 80 | 1013.0 |
| 20260904223956 | 19 | 114 | 4.8 | 6.4 | 0.00 | 0.00 | 0.00 | 79 | 1012.8 |
| 20260904223456 | 18 | 70 | 3.2 | 6.4 | 0.00 | 0.00 | 0.00 | 81 | 1012.8 |
| 20260904222956 | 18 | 91 | 6.4 | 6.4 | 0.00 | 0.00 | 0.00 | 80 | 1012.8 |
| 20260904222457 | 18 | 88 | 3.2 | 6.4 | 0.00 | 0.00 | 0.00 | 80 | 1012.7 |
| 20260904221955 | 18 | 140 | 3.2 | 6.4 | 0.00 | 0.00 | 0.00 | 79 | 1012.9 |
| 20260904221735 | 19 | 80 | 3.2 | 4.8 | 0.00 | 0.00 | 0.00 | 76 | 1013.0 |
| 20260904220956 | 19 | 84 | 3.2 | 3.2 | 0.00 | 0.00 | 0.00 | 77 | 1013.0 |
| 20260904220456 | 20 | 101 | 0.0 | 9.7 | 0.00 | 0.00 | 0.00 | 77 | 1012.9 |
| 20260904215956 | 20 | 75 | 3.2 | 9.7 | 0.00 | 0.00 | 0.00 | 73 | 1012.9 |
| 20260904215455 | 19 | 92 | 4.8 | 11.3 | 0.00 | 0.00 | 0.00 | 76 | 1012.9 |
| 20260904214956 | 18 | 64 | 4.8 | 11.3 | 0.00 | 0.00 | 0.00 | 77 | 1012.8 |
| 20260904214457 | 18 | 89 | 4.8 | 9.7 | 0.00 | 0.00 | 0.00 | 80 | 1012.9 |
| 20260904213955 | 17 | 81 | 6.4 | 9.7 | 0.00 | 0.00 | 0.00 | 81 | 1013.0 |
| 20260904213457 | 18 | 85 | 4.8 | 11.3 | 0.00 | 0.00 | 0.00 | 81 | 1012.9 |
| 20260904212957 | 18 | 91 | 9.7 | 11.3 | 0.00 | 0.00 | 0.00 | 78 | 1013.1 |
| 20260904212734 | 19 | 111 | 4.8 | 11.3 | 0.00 | 0.00 | 0.00 | 75 | 1013.0 |
| 20260904211955 | 19 | 81 | 6.4 | 11.3 | 0.00 | 0.00 | 0.00 | 76 | 1013.0 |
| 20260904211456 | 20 | 107 | 8.0 | 11.3 | 0.00 | 0.00 | 0.00 | 76 | 1013.1 |
| 20260904210956 | 20 | 272 | 1.6 | 11.3 | 0.00 | 0.00 | 0.00 | 75 | 1013.0 |
| 20260904210455 | 19 | 71 | 1.6 | 9.7 | 0.00 | 0.00 | 0.00 | 76 | 1012.9 |
| 20260904205956 | 20 | 92 | 8.0 | 9.7 | 0.00 | 0.00 | 0.00 | 76 | 1013.1 |
| 20260904205456 | 19 | 88 | 6.4 | 9.7 | 0.00 | 0.00 | 0.00 | 76 | 1013.0 |
| 20260904204957 | 19 | 105 | 3.2 | 9.7 | 0.00 | 0.00 | 0.00 | 77 | 1012.9 |
| 20260904204456 | 19 | 99 | 4.8 | 9.7 | 0.00 | 0.00 | 0.00 | 76 | 1012.9 |
| 20260904203955 | 20 | 107 | 3.2 | 4.8 | 0.00 | 0.00 | 0.00 | 76 | 1013.0 |
| 20260904203456 | 20 | 96 | 1.6 | 9.7 | 0.00 | 0.00 | 0.00 | 75 | 1013.0 |
| 20260904202956 | 20 | 133 | 1.6 | 9.7 | 0.00 | 0.00 | 0.00 | 73 | 1013.1 |
| 20260904202456 | 20 | 87 | 0.0 | 9.7 | 0.00 | 0.00 | 0.00 | 76 | 1013.3 |
| 20260904201956 | 21 | 95 | 3.2 | 12.9 | 0.00 | 0.00 | 0.00 | 72 | 1013.3 |
| 20260904201729 | 20 | 349 | 4.8 | 12.9 | 0.00 | 0.00 | 0.00 | 73 | 1013.2 |
| 20260904200956 | 20 | 94 | 3.2 | 6.4 | 0.00 | 0.00 | 0.00 | 75 | 1013.2 |
| 20260904200732 | 19 | 64 | 3.2 | 9.7 | 0.00 | 0.00 | 0.00 | 75 | 1013.4 |
| 20260904195956 | 19 | 116 | 3.2 | 9.7 | 0.00 | 0.00 | 0.00 | 78 | 1013.3 |